START_TIME,STEP,MOV.,E45,t_acc.,ALAR?,t_acc.,A12,t_acc.,A24,t_acc.
1979-03-04 18:00:15.810 ,3,0,376.,4.8,0.,4.8,19.,4.8,0.,4.8
1979-03-04 18:00:20.610 ,3,0,544.,4.8,0.,4.8,7.,4.8,0.,4.8
1979-03-04 18:00:25.410 ,3,0,528.,4.8,0.,4.8,15.,4.8,0.,4.8
1979-03-04 18:00:30.210 ,3,0,512.,4.8,0.,4.8,16.,4.8,0.,4.8
1979-03-04 18:00:35.010 ,3,0,296.,4.8,0.,4.8,11.,4.8,0.,4.8
1979-03-04 18:00:39.810 ,0,0,264.,4.8,0.,4.8,12.,4.8,0.,4.8
1979-03-04 18:00:44.610 ,0,0,392.,4.8,0.,4.8,9.,4.8,0.,4.8
1979-03-04 18:00:49.410 ,0,0,448.,4.8,0.,4.8,8.,4.8,0.,4.8
1979-03-04 18:00:54.210 ,0,0,472.,4.8,0.,4.8,7.,4.8,0.,4.8
1979-03-04 18:00:59.010 ,0,0,512.,4.8,0.,4.8,3.,4.8,0.,4.8
1979-03-04 18:01:03.810 ,4,0,360.,4.8,0.,4.8,11.,4.8,0.,4.8
1979-03-04 18:01:08.610 ,4,0,320.,4.8,0.,4.8,17.,4.8,0.,4.8
1979-03-04 18:01:13.410 ,4,0,288.,4.8,0.,4.8,10.,4.8,0.,4.8
1979-03-04 18:01:18.210 ,4,0,336.,4.8,0.,4.8,13.,4.8,0.,4.8
1979-03-04 18:01:23.010 ,4,0,560.,4.8,0.,4.8,7.,4.8,0.,4.8
1979-03-04 18:01:27.810 ,7,0,528.,4.8,0.,4.8,15.,4.8,0.,4.8
1979-03-04 18:01:32.610 ,7,0,464.,4.8,0.,4.8,9.,4.8,0.,4.8
1979-03-04 18:01:37.410 ,7,0,172.,4.8,0.,4.8,10.,4.8,0.,4.8
1979-03-04 18:01:42.210 ,7,0,0.,4.8,0.,4.8,0.,4.8,0.,4.8
1979-03-04 18:01:47.010 ,7,0,0.,4.8,0.,4.8,0.,4.8,0.,4.8
1979-03-04 18:01:51.810 ,3,0,368.,4.8,0.,4.8,13.,4.8,0.,4.8
1979-03-04 18:01:56.610 ,3,0,472.,4.8,0.,4.8,16.,4.8,0.,4.8
1979-03-04 18:02:01.410 ,3,0,560.,4.8,0.,4.8,18.,4.8,0.,4.8
1979-03-04 18:02:06.210 ,3,0,512.,4.8,0.,4.8,3.,4.8,0.,4.8
1979-03-04 18:02:11.010 ,3,0,296.,4.8,0.,4.8,14.,4.8,0.,4.8
1979-03-04 18:02:15.810 ,0,0,280.,4.8,0.,4.8,11.,4.8,0.,4.8
1979-03-04 18:02:20.610 ,0,0,392.,4.8,0.,4.8,3.,4.8,0.,4.8
1979-03-04 18:02:25.410 ,0,0,480.,4.8,0.,4.8,5.,4.8,0.,4.8
1979-03-04 18:02:30.210 ,0,0,480.,4.8,0.,4.8,7.,4.8,0.,4.8
1979-03-04 18:02:35.010 ,0,0,512.,4.8,0.,4.8,10.,4.8,0.,4.8
1979-03-04 18:02:39.810 ,4,0,400.,4.8,0.,4.8,9.,4.8,0.,4.8
1979-03-04 18:02:44.610 ,4,0,312.,4.8,0.,4.8,3.,4.8,0.,4.8
1979-03-04 18:02:49.410 ,4,0,288.,4.8,0.,4.8,9.,4.8,0.,4.8
1979-03-04 18:02:54.210 ,4,0,368.,4.8,0.,4.8,14.,4.8,0.,4.8
1979-03-04 18:02:59.010 ,4,0,640.,4.8,0.,4.8,9.,4.8,0.,4.8
1979-03-04 18:03:03.810 ,7,0,544.,4.8,0.,4.8,17.,4.8,0.,4.8
1979-03-04 18:03:08.610 ,7,0,488.,4.8,0.,4.8,10.,4.8,0.,4.8
1979-03-04 18:03:13.410 ,7,0,216.,4.8,0.,4.8,6.,4.8,0.,4.8
1979-03-04 18:03:18.210 ,7,0,0.,4.8,0.,4.8,0.,4.8,0.,4.8
1979-03-04 18:03:23.010 ,7,0,1.,4.8,0.,4.8,0.,4.8,0.,4.8
1979-03-04 18:03:27.810 ,3,0,448.,4.8,0.,4.8,13.,4.8,0.,4.8
1979-03-04 18:03:32.610 ,3,0,544.,4.8,0.,4.8,16.,4.8,0.,4.8
1979-03-04 18:03:37.410 ,3,0,592.,4.8,0.,4.8,5.,4.8,0.,4.8
1979-03-04 18:03:42.210 ,3,0,544.,4.8,0.,4.8,14.,4.8,0.,4.8
1979-03-04 18:03:47.010 ,3,0,328.,4.8,0.,4.8,12.,4.8,0.,4.8
1979-03-04 18:03:51.810 ,0,0,304.,4.8,0.,4.8,9.,4.8,0.,4.8
1979-03-04 18:03:56.610 ,0,0,376.,4.8,0.,4.8,6.,4.8,0.,4.8
1979-03-04 18:04:01.410 ,0,0,496.,4.8,0.,4.8,15.,4.8,0.,4.8
1979-03-04 18:04:06.210 ,0,0,528.,4.8,0.,4.8,12.,4.8,0.,4.8
1979-03-04 18:04:11.010 ,0,0,496.,4.8,0.,4.8,15.,4.8,0.,4.8
1979-03-04 18:04:15.810 ,4,0,424.,4.8,0.,4.8,11.,4.8,0.,4.8
1979-03-04 18:04:20.610 ,4,0,344.,4.8,0.,4.8,14.,4.8,0.,4.8
1979-03-04 18:04:25.410 ,4,0,328.,4.8,0.,4.8,14.,4.8,0.,4.8
1979-03-04 18:04:30.210 ,4,0,384.,4.8,0.,4.8,12.,4.8,0.,4.8
1979-03-04 18:04:35.010 ,4,0,624.,4.8,0.,4.8,18.,4.8,0.,4.8
1979-03-04 18:04:39.810 ,7,0,560.,4.8,0.,4.8,12.,4.8,0.,4.8
1979-03-04 18:04:44.610 ,7,0,456.,4.8,0.,4.8,15.,4.8,0.,4.8
1979-03-04 18:04:49.410 ,7,0,216.,4.8,0.,4.8,8.,4.8,0.,4.8
1979-03-04 18:04:54.210 ,7,0,0.,4.8,0.,4.8,0.,4.8,0.,4.8
1979-03-04 18:04:59.010 ,7,0,0.,4.8,0.,4.8,0.,4.8,0.,4.8
1979-03-04 18:05:03.810 ,3,0,400.,4.8,0.,4.8,6.,4.8,0.,4.8
1979-03-04 18:05:08.610 ,3,0,560.,4.8,0.,4.8,23.,4.8,0.,4.8
1979-03-04 18:05:13.410 ,3,0,640.,4.8,0.,4.8,16.,4.8,0.,4.8
1979-03-04 18:05:18.210 ,3,0,560.,4.8,0.,4.8,18.,4.8,0.,4.8
1979-03-04 18:05:23.010 ,3,0,328.,4.8,0.,4.8,13.,4.8,0.,4.8
1979-03-04 18:06:15.810 ,0,0,672.,4.8,0.,4.8,17.,4.8,0.,4.8
1979-03-04 18:06:20.610 ,0,0,480.,4.8,0.,4.8,17.,4.8,0.,4.8
1979-03-04 18:06:25.410 ,0,0,228.,4.8,0.,4.8,4.,4.8,0.,4.8
1979-03-04 18:06:30.210 ,0,0,1.,4.8,0.,4.8,0.,4.8,0.,4.8
1979-03-04 18:06:35.010 ,0,0,1.,4.8,0.,4.8,0.,4.8,0.,4.8
1979-03-04 18:06:39.810 ,3,0,480.,4.8,0.,4.8,22.,4.8,0.,4.8
1979-03-04 18:06:44.610 ,3,0,608.,4.8,0.,4.8,17.,4.8,0.,4.8
1979-03-04 18:06:49.410 ,3,0,688.,4.8,0.,4.8,10.,4.8,0.,4.8
1979-03-04 18:06:54.210 ,3,0,544.,4.8,0.,4.8,7.,4.8,0.,4.8
1979-03-04 18:06:59.010 ,3,0,336.,4.8,0.,4.8,11.,4.8,0.,4.8
1979-03-04 18:07:03.810 ,0,0,312.,4.8,0.,4.8,8.,4.8,0.,4.8
1979-03-04 18:07:08.610 ,0,0,432.,4.8,0.,4.8,14.,4.8,0.,4.8
1979-03-04 18:07:13.410 ,0,0,512.,4.8,0.,4.8,13.,4.8,0.,4.8
1979-03-04 18:07:18.210 ,0,0,576.,4.8,0.,4.8,14.,4.8,0.,4.8
1979-03-04 18:07:23.010 ,0,0,560.,4.8,0.,4.8,11.,4.8,0.,4.8
1979-03-04 18:07:27.810 ,4,0,448.,4.8,0.,4.8,10.,4.8,0.,4.8
1979-03-04 18:07:32.610 ,4,0,376.,4.8,0.,4.8,15.,4.8,0.,4.8
1979-03-04 18:07:37.410 ,4,0,328.,4.8,0.,4.8,22.,4.8,0.,4.8
1979-03-04 18:07:42.210 ,4,0,392.,4.8,0.,4.8,7.,4.8,0.,4.8
1979-03-04 18:07:47.010 ,4,0,656.,4.8,0.,4.8,17.,4.8,0.,4.8
1979-03-04 18:07:51.810 ,7,0,624.,4.8,0.,4.8,17.,4.8,0.,4.8
1979-03-04 18:07:56.610 ,7,0,544.,4.8,0.,4.8,18.,4.8,0.,4.8
1979-03-04 18:08:01.410 ,7,0,240.,4.8,0.,4.8,13.,4.8,0.,4.8
1979-03-04 18:08:06.210 ,7,0,0.,4.8,0.,4.8,0.,4.8,0.,4.8
1979-03-04 18:08:11.010 ,7,0,1.,4.8,0.,4.8,0.,4.8,0.,4.8
1979-03-04 18:08:15.810 ,3,0,464.,4.8,0.,4.8,17.,4.8,0.,4.8
1979-03-04 18:08:20.610 ,3,0,592.,4.8,0.,4.8,15.,4.8,0.,4.8
1979-03-04 18:08:25.410 ,3,0,656.,4.8,0.,4.8,11.,4.8,0.,4.8
1979-03-04 18:08:30.210 ,3,0,528.,4.8,0.,4.8,19.,4.8,0.,4.8
1979-03-04 18:08:35.010 ,3,0,360.,4.8,0.,4.8,17.,4.8,0.,4.8
1979-03-04 18:08:39.810 ,0,0,328.,4.8,0.,4.8,7.,4.8,0.,4.8
1979-03-04 18:08:44.610 ,0,0,400.,4.8,0.,4.8,13.,4.8,0.,4.8
1979-03-04 18:08:49.410 ,0,0,544.,4.8,0.,4.8,16.,4.8,0.,4.8
1979-03-04 18:08:54.210 ,0,0,560.,4.8,0.,4.8,11.,4.8,0.,4.8
1979-03-04 18:08:59.010 ,0,0,560.,4.8,0.,4.8,9.,4.8,0.,4.8
1979-03-04 18:09:03.810 ,4,0,472.,4.8,0.,4.8,13.,4.8,0.,4.8
1979-03-04 18:09:08.610 ,4,0,384.,4.8,0.,4.8,10.,4.8,0.,4.8
1979-03-04 18:09:13.410 ,4,0,368.,4.8,0.,4.8,9.,4.8,0.,4.8
1979-03-04 18:09:18.210 ,4,0,440.,4.8,0.,4.8,12.,4.8,0.,4.8
1979-03-04 18:09:23.010 ,4,0,736.,4.8,0.,4.8,10.,4.8,0.,4.8
1979-03-04 18:09:27.810 ,7,0,624.,4.8,0.,4.8,20.,4.8,0.,4.8
1979-03-04 18:09:32.610 ,7,0,528.,4.8,0.,4.8,13.,4.8,0.,4.8
1979-03-04 18:09:37.410 ,7,0,280.,4.8,0.,4.8,9.,4.8,0.,4.8
1979-03-04 18:09:42.210 ,7,0,0.,4.8,0.,4.8,0.,4.8,0.,4.8
1979-03-04 18:09:47.010 ,7,0,2.,4.8,0.,4.8,0.,4.8,0.,4.8
1979-03-04 18:09:51.810 ,3,0,504.,4.8,0.,4.8,19.,4.8,0.,4.8
1979-03-04 18:09:56.610 ,3,0,576.,4.8,0.,4.8,19.,4.8,0.,4.8
1979-03-04 18:10:01.410 ,3,0,672.,4.8,0.,4.8,21.,4.8,0.,4.8
1979-03-04 18:10:06.210 ,3,0,592.,4.8,0.,4.8,14.,4.8,0.,4.8
1979-03-04 18:10:11.010 ,3,0,328.,4.8,0.,4.8,17.,4.8,0.,4.8
1979-03-04 18:10:15.810 ,0,0,328.,4.8,0.,4.8,12.,4.8,0.,4.8
1979-03-04 18:10:20.610 ,0,0,448.,4.8,0.,4.8,14.,4.8,0.,4.8
1979-03-04 18:10:25.410 ,0,0,528.,4.8,0.,4.8,6.,4.8,0.,4.8
1979-03-04 18:10:30.210 ,0,0,608.,4.8,0.,4.8,12.,4.8,0.,4.8
1979-03-04 18:10:35.010 ,0,0,592.,4.8,0.,4.8,8.,4.8,0.,4.8
1979-03-04 18:10:39.810 ,4,0,496.,4.8,0.,4.8,12.,4.8,0.,4.8
1979-03-04 18:10:44.610 ,4,0,384.,4.8,0.,4.8,14.,4.8,0.,4.8
1979-03-04 18:10:49.410 ,4,0,416.,4.8,0.,4.8,10.,4.8,0.,4.8
1979-03-04 18:10:54.210 ,4,0,416.,4.8,0.,4.8,15.,4.8,0.,4.8
1979-03-04 18:10:59.010 ,4,0,688.,4.8,0.,4.8,12.,4.8,0.,4.8
1979-03-04 18:11:03.810 ,7,0,656.,4.8,0.,4.8,21.,4.8,0.,4.8
1979-03-04 18:11:08.610 ,7,0,544.,4.8,0.,4.8,21.,4.8,0.,4.8
1979-03-04 18:11:13.410 ,7,0,228.,4.8,0.,4.8,9.,4.8,0.,4.8
1979-03-04 18:11:18.210 ,7,0,0.,4.8,0.,4.8,0.,4.8,0.,4.8
1979-03-04 18:11:23.010 ,7,0,1.,4.8,0.,4.8,0.,4.8,0.,4.8
1979-03-04 18:11:27.810 ,3,0,512.,4.8,0.,4.8,14.,4.8,0.,4.8
1979-03-04 18:11:32.610 ,3,0,656.,4.8,0.,4.8,17.,4.8,0.,4.8
1979-03-04 18:11:37.410 ,3,0,704.,4.8,0.,4.8,23.,4.8,0.,4.8
1979-03-04 18:11:42.210 ,3,0,640.,4.8,0.,4.8,8.,4.8,0.,4.8
1979-03-04 18:11:47.010 ,3,0,392.,4.8,0.,4.8,13.,4.8,0.,4.8
1979-03-04 18:11:51.810 ,0,0,352.,4.8,0.,4.8,12.,4.8,0.,4.8
1979-03-04 18:11:56.610 ,0,0,432.,4.8,0.,4.8,10.,4.8,0.,4.8
1979-03-04 18:12:01.410 ,0,0,512.,4.8,0.,4.8,12.,4.8,0.,4.8
1979-03-04 18:12:06.210 ,0,0,,0,,0,,0,,0
1979-03-04 18:12:11.010 ,0,0,672.,4.8,0.,4.8,12.,4.8,0.,4.8
1979-03-04 18:12:15.810 ,4,0,504.,4.8,0.,4.8,12.,4.8,0.,4.8
1979-03-04 18:12:20.610 ,4,0,368.,4.8,0.,4.8,12.,4.8,0.,4.8
1979-03-04 18:12:25.410 ,4,0,352.,4.8,0.,4.8,12.,4.8,0.,4.8
1979-03-04 18:12:30.210 ,4,0,464.,4.8,0.,4.8,14.,4.8,0.,4.8
1979-03-04 18:12:35.010 ,4,0,720.,4.8,0.,4.8,15.,4.8,0.,4.8
1979-03-04 18:23:03.810 ,0,0,456.,4.8,0.,4.8,17.,4.8,0.,4.8
1979-03-04 18:23:08.610 ,0,0,528.,4.8,0.,4.8,17.,4.8,0.,4.8
1979-03-04 18:23:13.410 ,0,0,704.,4.8,0.,4.8,16.,4.8,0.,4.8
1979-03-04 18:23:18.210 ,0,0,784.,4.8,0.,4.8,23.,4.8,0.,4.8
1979-03-04 18:23:23.010 ,0,0,752.,4.8,0.,4.8,23.,4.8,0.,4.8
1979-03-04 18:23:27.810 ,4,0,560.,4.8,0.,4.8,21.,4.8,0.,4.8
1979-03-04 18:23:32.610 ,4,0,480.,4.8,0.,4.8,16.,4.8,0.,4.8
1979-03-04 18:23:37.410 ,4,0,456.,4.8,0.,4.8,19.,4.8,0.,4.8
1979-03-04 18:23:42.210 ,4,0,576.,4.8,0.,4.8,19.,4.8,0.,4.8
1979-03-04 18:23:47.010 ,4,0,880.,4.8,0.,4.8,13.,4.8,0.,4.8
1979-03-04 18:23:51.810 ,7,0,800.,4.8,0.,4.8,13.,4.8,0.,4.8
1979-03-04 18:23:56.610 ,7,0,624.,4.8,0.,4.8,25.,4.8,0.,4.8
1979-03-04 18:24:01.410 ,7,0,320.,4.8,0.,4.8,20.,4.8,0.,4.8
1979-03-04 18:24:06.210 ,7,0,1.,4.8,0.,4.8,0.,4.8,0.,4.8
1979-03-04 18:24:11.010 ,7,0,1.,4.8,0.,4.8,0.,4.8,0.,4.8
1979-03-04 18:24:15.810 ,3,0,624.,4.8,0.,4.8,23.,4.8,0.,4.8
1979-03-04 18:24:20.610 ,3,0,768.,4.8,0.,4.8,18.,4.8,0.,4.8
1979-03-04 18:24:25.410 ,3,0,880.,4.8,0.,4.8,21.,4.8,0.,4.8
1979-03-04 18:24:30.210 ,3,0,832.,4.8,0.,4.8,19.,4.8,0.,4.8
1979-03-04 18:24:35.010 ,3,0,440.,4.8,0.,4.8,11.,4.8,0.,4.8
1979-03-04 18:24:39.810 ,0,0,440.,4.8,0.,4.8,21.,4.8,0.,4.8
1979-03-04 18:24:44.610 ,0,0,560.,4.8,0.,4.8,15.,4.8,0.,4.8
1979-03-04 18:24:49.410 ,0,0,736.,4.8,0.,4.8,11.,4.8,0.,4.8
1979-03-04 18:24:54.210 ,0,0,784.,4.8,0.,4.8,20.,4.8,0.,4.8
1979-03-04 18:24:59.010 ,0,0,784.,4.8,0.,4.8,15.,4.8,0.,4.8
1979-03-04 18:25:03.810 ,4,0,608.,4.8,0.,4.8,24.,4.8,0.,4.8
1979-03-04 18:25:08.610 ,4,0,480.,4.8,0.,4.8,19.,4.8,0.,4.8
1979-03-04 18:25:13.410 ,4,0,480.,4.8,0.,4.8,22.,4.8,0.,4.8
1979-03-04 18:25:18.210 ,4,0,592.,4.8,0.,4.8,11.,4.8,0.,4.8
1979-03-04 18:25:23.010 ,4,0,944.,4.8,0.,4.8,12.,4.8,0.,4.8
1979-03-04 18:25:27.810 ,7,0,816.,4.8,0.,4.8,26.,4.8,0.,4.8
1979-03-04 18:25:32.610 ,7,0,576.,4.8,0.,4.8,16.,4.8,0.,4.8
1979-03-04 18:25:37.410 ,7,0,304.,4.8,0.,4.8,18.,4.8,0.,4.8
1979-03-04 18:25:42.210 ,7,0,1.,4.8,0.,4.8,0.,4.8,0.,4.8
1979-03-04 18:25:47.010 ,7,0,1.,4.8,0.,4.8,1.,4.8,0.,4.8
1979-03-04 18:25:51.810 ,3,0,624.,4.8,0.,4.8,26.,4.8,0.,4.8
1979-03-04 18:25:56.610 ,3,0,784.,4.8,0.,4.8,24.,4.8,0.,4.8
1979-03-04 18:26:01.410 ,3,0,848.,4.8,0.,4.8,19.,4.8,0.,4.8
1979-03-04 18:26:06.210 ,3,0,784.,4.8,0.,4.8,18.,4.8,0.,4.8
1979-03-04 18:26:11.010 ,3,0,488.,4.8,0.,4.8,12.,4.8,0.,4.8
1979-03-04 18:26:15.810 ,0,0,480.,4.8,0.,4.8,29.,4.8,0.,4.8
1979-03-04 18:26:20.610 ,0,0,592.,4.8,0.,4.8,15.,4.8,0.,4.8
1979-03-04 18:26:25.410 ,0,0,720.,4.8,0.,4.8,20.,4.8,0.,4.8
1979-03-04 18:26:30.210 ,0,0,752.,4.8,0.,4.8,16.,4.8,0.,4.8
1979-03-04 18:26:35.010 ,0,0,832.,4.8,0.,4.8,9.,4.8,0.,4.8
1979-03-04 18:26:39.810 ,4,0,672.,4.8,0.,4.8,24.,4.8,0.,4.8
1979-03-04 18:26:44.610 ,4,0,512.,4.8,0.,4.8,16.,4.8,0.,4.8
1979-03-04 18:26:49.410 ,4,0,488.,4.8,0.,4.8,21.,4.8,0.,4.8
1979-03-04 18:26:54.210 ,4,0,608.,4.8,0.,4.8,15.,4.8,0.,4.8
1979-03-04 18:26:59.010 ,4,0,944.,4.8,0.,4.8,21.,4.8,0.,4.8
1979-03-04 18:27:03.810 ,7,0,864.,4.8,0.,4.8,22.,4.8,0.,4.8
1979-03-04 18:27:08.610 ,7,0,640.,4.8,0.,4.8,21.,4.8,0.,4.8
1979-03-04 18:27:13.410 ,7,0,312.,4.8,0.,4.8,7.,4.8,0.,4.8
1979-03-04 18:27:18.210 ,7,0,0.,4.8,0.,4.8,0.,4.8,0.,4.8
1979-03-04 18:27:23.010 ,7,0,3.,4.8,0.,4.8,0.,4.8,0.,4.8
1979-03-04 18:27:27.810 ,3,0,624.,4.8,0.,4.8,26.,4.8,0.,4.8
1979-03-04 18:27:32.610 ,3,0,784.,4.8,0.,4.8,25.,4.8,0.,4.8
1979-03-04 18:27:37.410 ,3,0,896.,4.8,0.,4.8,21.,4.8,0.,4.8
1979-03-04 18:27:42.210 ,3,0,816.,4.8,0.,4.8,16.,4.8,0.,4.8
1979-03-04 18:27:47.010 ,3,0,480.,4.8,0.,4.8,14.,4.8,0.,4.8
1979-03-04 18:27:51.810 ,0,0,448.,4.8,0.,4.8,19.,4.8,0.,4.8
1979-03-04 18:27:56.610 ,0,0,,0,,0,,0,,0
1979-03-04 18:28:01.410 ,0,0,736.,4.8,0.,4.8,18.,4.8,0.,4.8
1979-03-04 18:28:06.210 ,0,0,768.,4.8,0.,4.8,18.,4.8,0.,4.8
1979-03-04 18:28:11.010 ,0,0,816.,4.8,0.,4.8,18.,4.8,0.,4.8
1979-03-04 18:28:15.810 ,4,0,592.,4.8,0.,4.8,17.,4.8,0.,4.8
1979-03-04 18:28:20.610 ,4,0,512.,4.8,0.,4.8,22.,4.8,0.,4.8
1979-03-04 18:28:25.410 ,4,0,480.,4.8,0.,4.8,24.,4.8,0.,4.8
1979-03-04 18:28:30.210 ,4,0,608.,4.8,0.,4.8,24.,4.8,0.,4.8
1979-03-04 18:28:35.010 ,4,0,992.,4.8,0.,4.8,21.,4.8,0.,4.8
1979-03-04 18:28:39.810 ,7,0,864.,4.8,0.,4.8,18.,4.8,0.,4.8
1979-03-04 18:28:44.610 ,7,0,768.,4.8,0.,4.8,24.,4.8,0.,4.8
1979-03-04 18:28:49.410 ,7,0,336.,4.8,0.,4.8,9.,4.8,0.,4.8
1979-03-04 18:28:54.210 ,7,0,2.,4.8,0.,4.8,0.,4.8,0.,4.8
1979-03-04 18:28:59.010 ,7,0,2.,4.8,0.,4.8,0.,4.8,0.,4.8
1979-03-04 18:29:03.810 ,3,0,576.,4.8,0.,4.8,20.,4.8,0.,4.8
1979-03-04 18:29:08.610 ,3,0,832.,4.8,0.,4.8,25.,4.8,0.,4.8
1979-03-04 18:29:13.410 ,3,0,880.,4.8,0.,4.8,17.,4.8,0.,4.8
1979-03-04 18:29:18.210 ,3,0,848.,4.8,0.,4.8,21.,4.8,0.,4.8
1979-03-04 18:29:23.010 ,3,0,440.,4.8,0.,4.8,14.,4.8,0.,4.8
1979-03-04 18:29:27.810 ,0,0,416.,4.8,0.,4.8,10.,4.8,0.,4.8
1979-03-04 18:29:32.610 ,0,0,544.,4.8,0.,4.8,14.,4.8,0.,4.8
1979-03-04 18:29:37.410 ,0,0,672.,4.8,0.,4.8,10.,4.8,0.,4.8
1979-03-04 18:29:42.210 ,0,0,832.,4.8,0.,4.8,31.,4.8,0.,4.8
1979-03-04 18:29:47.010 ,0,0,816.,4.8,0.,4.8,20.,4.8,0.,4.8
1979-03-04 18:29:51.810 ,4,0,656.,4.8,0.,4.8,22.,4.8,0.,4.8
1979-03-04 18:29:56.610 ,4,0,512.,4.8,0.,4.8,15.,4.8,0.,4.8
1979-03-04 18:30:01.410 ,4,0,464.,4.8,0.,4.8,13.,4.8,0.,4.8
1979-03-04 18:30:06.210 ,4,0,656.,4.8,0.,4.8,16.,4.8,0.,4.8
1979-03-04 18:30:11.010 ,4,0,944.,4.8,0.,4.8,16.,4.8,0.,4.8
1979-03-04 18:30:15.810 ,7,0,880.,4.8,0.,4.8,16.,4.8,0.,4.8
1979-03-04 18:30:20.610 ,7,0,672.,4.8,0.,4.8,23.,4.8,0.,4.8
1979-03-04 18:30:25.410 ,7,0,320.,4.8,0.,4.8,13.,4.8,0.,4.8
1979-03-04 18:30:30.210 ,7,0,1.,4.8,0.,4.8,0.,4.8,0.,4.8
1979-03-04 18:30:35.010 ,7,0,2.,4.8,0.,4.8,0.,4.8,0.,4.8
1979-03-04 18:30:39.810 ,3,0,704.,4.8,0.,4.8,28.,4.8,0.,4.8
1979-03-04 18:30:44.610 ,3,0,832.,4.8,0.,4.8,17.,4.8,0.,4.8
1979-03-04 18:30:49.410 ,3,0,944.,4.8,0.,4.8,28.,4.8,0.,4.8
1979-03-04 18:30:54.210 ,3,0,864.,4.8,0.,4.8,15.,4.8,0.,4.8
1979-03-04 18:30:59.010 ,3,0,488.,4.8,0.,4.8,17.,4.8,0.,4.8
1979-03-04 18:31:03.810 ,0,0,448.,4.8,0.,4.8,17.,4.8,0.,4.8
1979-03-04 18:31:08.610 ,0,0,560.,4.8,0.,4.8,16.,4.8,0.,4.8
1979-03-04 18:31:13.410 ,0,0,736.,4.8,0.,4.8,22.,4.8,0.,4.8
1979-03-04 18:31:18.210 ,0,0,800.,4.8,0.,4.8,17.,4.8,0.,4.8
1979-03-04 18:31:23.010 ,0,0,816.,4.8,0.,4.8,19.,4.8,0.,4.8
1979-03-04 18:31:27.810 ,4,0,688.,4.8,0.,4.8,19.,4.8,0.,4.8
1979-03-04 18:31:32.610 ,4,0,504.,4.8,0.,4.8,13.,4.8,0.,4.8
1979-03-04 18:31:37.410 ,4,0,472.,4.8,0.,4.8,21.,4.8,0.,4.8
1979-03-04 18:31:42.210 ,4,0,592.,4.8,0.,4.8,23.,4.8,0.,4.8
1979-03-04 18:31:47.010 ,4,0,1024.,4.8,0.,4.8,24.,4.8,0.,4.8
1979-03-04 18:31:51.810 ,7,0,912.,4.8,0.,4.8,22.,4.8,0.,4.8
1979-03-04 18:31:56.610 ,7,0,704.,4.8,0.,4.8,24.,4.8,0.,4.8
1979-03-04 18:32:01.410 ,7,0,328.,4.8,0.,4.8,16.,4.8,0.,4.8
1979-03-04 18:32:06.210 ,7,0,1.,4.8,0.,4.8,1.,4.8,0.,4.8
1979-03-04 18:32:11.010 ,7,0,0.,4.8,0.,4.8,0.,4.8,0.,4.8
1979-03-04 18:32:15.810 ,3,0,656.,4.8,0.,4.8,25.,4.8,0.,4.8
1979-03-04 18:32:20.610 ,3,0,832.,4.8,0.,4.8,28.,4.8,0.,4.8
1979-03-04 18:32:25.410 ,3,0,880.,4.8,0.,4.8,23.,4.8,0.,4.8
1979-03-04 18:32:30.210 ,3,0,848.,4.8,0.,4.8,31.,4.8,0.,4.8
1979-03-04 18:32:35.010 ,3,0,488.,4.8,0.,4.8,18.,4.8,0.,4.8
1979-03-04 18:32:39.810 ,0,0,448.,4.8,0.,4.8,18.,4.8,0.,4.8
1979-03-04 18:32:44.610 ,0,0,608.,4.8,0.,4.8,17.,4.8,0.,4.8
1979-03-04 18:32:49.410 ,0,0,752.,4.8,0.,4.8,25.,4.8,0.,4.8
1979-03-04 18:32:54.210 ,0,0,768.,4.8,0.,4.8,25.,4.8,0.,4.8
1979-03-04 18:32:59.010 ,0,0,816.,4.8,0.,4.8,14.,4.8,0.,4.8
1979-03-04 18:33:03.810 ,4,0,704.,4.8,0.,4.8,20.,4.8,0.,4.8
1979-03-04 18:33:08.610 ,4,0,512.,4.8,0.,4.8,11.,4.8,0.,4.8
1979-03-04 18:33:13.410 ,4,0,464.,4.8,0.,4.8,21.,4.8,0.,4.8
1979-03-04 18:33:18.210 ,4,0,592.,4.8,0.,4.8,17.,4.8,0.,4.8
1979-03-04 18:33:23.010 ,4,0,992.,4.8,0.,4.8,11.,4.8,0.,4.8
1979-03-04 18:33:27.810 ,7,0,832.,4.8,0.,4.8,21.,4.8,0.,4.8
1979-03-04 18:33:32.610 ,7,0,640.,4.8,0.,4.8,21.,4.8,0.,4.8
1979-03-04 18:33:37.410 ,7,0,296.,4.8,0.,4.8,19.,4.8,0.,4.8
1979-03-04 18:33:42.210 ,7,0,2.,4.8,0.,4.8,0.,4.8,0.,4.8
1979-03-04 18:33:47.010 ,7,0,2.,4.8,0.,4.8,0.,4.8,0.,4.8
1979-03-04 18:33:51.810 ,3,0,688.,4.8,0.,4.8,26.,4.8,0.,4.8
1979-03-04 18:33:56.610 ,3,0,832.,4.8,0.,4.8,26.,4.8,0.,4.8
1979-03-04 18:34:01.410 ,3,0,880.,4.8,0.,4.8,32.,4.8,0.,4.8
1979-03-04 18:34:06.210 ,3,0,816.,4.8,0.,4.8,20.,4.8,0.,4.8
1979-03-04 18:34:11.010 ,3,0,456.,4.8,0.,4.8,16.,4.8,0.,4.8
1979-03-04 18:34:15.810 ,0,0,456.,4.8,0.,4.8,25.,4.8,0.,4.8
1979-03-04 18:34:20.610 ,0,0,576.,4.8,0.,4.8,17.,4.8,0.,4.8
1979-03-04 18:34:25.410 ,0,0,704.,4.8,0.,4.8,27.,4.8,0.,4.8
1979-03-04 18:34:30.210 ,0,0,736.,4.8,0.,4.8,16.,4.8,0.,4.8
1979-03-04 18:34:35.010 ,0,0,768.,4.8,0.,4.8,14.,4.8,0.,4.8
1979-03-04 18:34:39.810 ,4,0,624.,4.8,0.,4.8,21.,4.8,0.,4.8
1979-03-04 18:34:44.610 ,4,0,504.,4.8,0.,4.8,15.,4.8,0.,4.8
1979-03-04 18:34:49.410 ,4,0,496.,4.8,0.,4.8,23.,4.8,0.,4.8
1979-03-04 18:34:54.210 ,4,0,608.,4.8,0.,4.8,19.,4.8,0.,4.8
1979-03-04 18:34:59.010 ,4,0,896.,4.8,0.,4.8,26.,4.8,0.,4.8
1979-03-04 18:35:03.810 ,7,0,816.,4.8,0.,4.8,26.,4.8,0.,4.8
1979-03-04 18:35:08.610 ,7,0,656.,4.8,0.,4.8,26.,4.8,0.,4.8
1979-03-04 18:35:13.410 ,7,0,304.,4.8,0.,4.8,14.,4.8,0.,4.8
1979-03-04 18:35:18.210 ,7,0,2.,4.8,0.,4.8,0.,4.8,0.,4.8
1979-03-04 18:35:23.010 ,7,0,2.,4.8,0.,4.8,1.,4.8,0.,4.8
1979-03-04 18:35:27.810 ,3,0,640.,4.8,0.,4.8,37.,4.8,0.,4.8
1979-03-04 18:35:32.610 ,3,0,768.,4.8,0.,4.8,24.,4.8,0.,4.8
1979-03-04 18:35:37.410 ,3,0,960.,4.8,0.,4.8,23.,4.8,0.,4.8
1979-03-04 18:35:42.210 ,3,0,768.,4.8,0.,4.8,20.,4.8,0.,4.8
1979-03-04 18:35:47.010 ,3,0,464.,4.8,0.,4.8,21.,4.8,0.,4.8
1979-03-04 18:35:51.810 ,0,0,488.,4.8,0.,4.8,25.,4.8,0.,4.8
1979-03-04 18:35:56.610 ,0,0,576.,4.8,0.,4.8,10.,4.8,0.,4.8
1979-03-04 18:36:01.410 ,0,0,672.,4.8,0.,4.8,21.,4.8,0.,4.8
1979-03-04 18:36:06.210 ,0,0,800.,4.8,0.,4.8,26.,4.8,0.,4.8
1979-03-04 18:36:11.010 ,0,0,784.,4.8,0.,4.8,20.,4.8,0.,4.8
1979-03-04 18:36:15.810 ,4,0,656.,4.8,0.,4.8,21.,4.8,0.,4.8
1979-03-04 18:36:20.610 ,4,0,512.,4.8,0.,4.8,17.,4.8,0.,4.8
1979-03-04 18:36:25.410 ,4,0,480.,4.8,0.,4.8,20.,4.8,0.,4.8
1979-03-04 18:36:30.210 ,4,0,576.,4.8,0.,4.8,22.,4.8,0.,4.8
1979-03-04 18:36:35.010 ,4,0,912.,4.8,0.,4.8,22.,4.8,0.,4.8
1979-03-04 18:36:39.810 ,7,0,832.,4.8,0.,4.8,24.,4.8,0.,4.8
1979-03-04 18:36:44.610 ,7,0,704.,4.8,0.,4.8,24.,4.8,0.,4.8
1979-03-04 18:36:49.410 ,7,0,312.,4.8,0.,4.8,6.,4.8,0.,4.8
1979-03-04 18:36:54.210 ,7,0,0.,4.8,0.,4.8,0.,4.8,0.,4.8
1979-03-04 18:36:59.010 ,7,0,0.,4.8,0.,4.8,0.,4.8,0.,4.8
1979-03-04 18:37:03.810 ,3,0,640.,4.8,0.,4.8,29.,4.8,0.,4.8
1979-03-04 18:37:08.610 ,3,0,784.,4.8,0.,4.8,24.,4.8,0.,4.8
1979-03-04 18:37:13.410 ,3,0,912.,4.8,0.,4.8,29.,4.8,0.,4.8
1979-03-04 18:37:18.210 ,3,0,800.,4.8,0.,4.8,14.,4.8,0.,4.8
1979-03-04 18:37:23.010 ,3,0,464.,4.8,0.,4.8,21.,4.8,0.,4.8
1979-03-04 18:37:27.810 ,0,0,464.,4.8,0.,4.8,18.,4.8,0.,4.8
1979-03-04 18:37:32.610 ,0,0,608.,4.8,0.,4.8,17.,4.8,0.,4.8
1979-03-04 18:37:37.410 ,0,0,736.,4.8,0.,4.8,27.,4.8,0.,4.8
1979-03-04 18:37:42.210 ,0,0,752.,4.8,0.,4.8,23.,4.8,0.,4.8
1979-03-04 18:37:47.010 ,0,0,784.,4.8,0.,4.8,22.,4.8,0.,4.8
1979-03-04 18:37:51.810 ,4,0,672.,4.8,0.,4.8,24.,4.8,0.,4.8
1979-03-04 18:37:56.610 ,4,0,496.,4.8,0.,4.8,21.,4.8,0.,4.8
1979-03-04 18:38:01.410 ,4,0,464.,4.8,0.,4.8,20.,4.8,0.,4.8
1979-03-04 18:38:06.210 ,4,0,560.,4.8,0.,4.8,23.,4.8,0.,4.8
1979-03-04 18:38:11.010 ,4,0,992.,4.8,0.,4.8,29.,4.8,0.,4.8
1979-03-04 18:38:15.810 ,7,0,944.,4.8,0.,4.8,23.,4.8,0.,4.8
1979-03-04 18:38:20.610 ,7,0,704.,4.8,0.,4.8,32.,4.8,0.,4.8
1979-03-04 18:38:25.410 ,7,0,352.,4.8,0.,4.8,21.,4.8,0.,4.8
1979-03-04 18:38:30.210 ,7,0,1.,4.8,0.,4.8,0.,4.8,0.,4.8
1979-03-04 18:38:35.010 ,7,0,3.,4.8,0.,4.8,0.,4.8,0.,4.8
1979-03-04 18:38:39.810 ,3,0,656.,4.8,0.,4.8,25.,4.8,0.,4.8
1979-03-04 18:38:44.610 ,3,0,864.,4.8,0.,4.8,20.,4.8,0.,4.8
1979-03-04 18:38:49.410 ,3,0,880.,4.8,0.,4.8,19.,4.8,0.,4.8
1979-03-04 18:38:54.210 ,3,0,768.,4.8,0.,4.8,24.,4.8,0.,4.8
1979-03-04 18:38:59.010 ,3,0,512.,4.8,0.,4.8,15.,4.8,0.,4.8
1979-03-04 18:39:03.810 ,0,0,440.,4.8,0.,4.8,24.,4.8,0.,4.8
1979-03-04 18:39:08.610 ,0,0,640.,4.8,0.,4.8,28.,4.8,0.,4.8
1979-03-04 18:39:13.410 ,0,0,752.,4.8,0.,4.8,15.,4.8,0.,4.8
1979-03-04 18:39:18.210 ,0,0,752.,4.8,0.,4.8,13.,4.8,0.,4.8
1979-03-04 18:39:23.010 ,0,0,800.,4.8,0.,4.8,17.,4.8,0.,4.8
1979-03-04 18:39:27.810 ,4,0,688.,4.8,0.,4.8,22.,4.8,0.,4.8
1979-03-04 18:39:32.610 ,4,0,560.,4.8,0.,4.8,17.,4.8,0.,4.8
1979-03-04 18:39:37.410 ,4,0,448.,4.8,0.,4.8,24.,4.8,0.,4.8
1979-03-04 18:39:42.210 ,4,0,624.,4.8,0.,4.8,26.,4.8,0.,4.8
1979-03-04 18:39:47.010 ,4,0,1008.,4.8,0.,4.8,26.,4.8,0.,4.8
1979-03-04 18:39:51.810 ,7,0,912.,4.8,0.,4.8,23.,4.8,0.,4.8
1979-03-04 18:39:56.610 ,7,0,720.,4.8,0.,4.8,33.,4.8,0.,4.8
1979-03-04 18:40:01.410 ,7,0,312.,4.8,0.,4.8,17.,4.8,0.,4.8
1979-03-04 18:40:06.210 ,7,0,1.,4.8,0.,4.8,0.,4.8,0.,4.8
1979-03-04 18:40:11.010 ,7,0,2.,4.8,0.,4.8,0.,4.8,0.,4.8
1979-03-04 18:40:15.810 ,3,0,720.,4.8,0.,4.8,30.,4.8,0.,4.8
1979-03-04 18:40:20.610 ,3,0,848.,4.8,0.,4.8,27.,4.8,0.,4.8
1979-03-04 18:40:25.410 ,3,0,912.,4.8,0.,4.8,22.,4.8,0.,4.8
1979-03-04 18:40:30.210 ,3,0,832.,4.8,0.,4.8,32.,4.8,0.,4.8
1979-03-04 18:40:35.010 ,3,0,528.,4.8,0.,4.8,15.,4.8,0.,4.8
1979-03-04 18:40:39.810 ,0,0,448.,4.8,0.,4.8,22.,4.8,0.,4.8
1979-03-04 18:40:44.610 ,0,0,672.,4.8,0.,4.8,23.,4.8,0.,4.8
1979-03-04 18:40:49.410 ,0,0,800.,4.8,0.,4.8,28.,4.8,0.,4.8
1979-03-04 18:40:54.210 ,0,0,864.,4.8,0.,4.8,20.,4.8,0.,4.8
1979-03-04 18:40:59.010 ,0,0,816.,4.8,0.,4.8,16.,4.8,0.,4.8
1979-03-04 18:41:03.810 ,4,0,672.,4.8,0.,4.8,14.,4.8,0.,4.8
1979-03-04 18:41:08.610 ,4,0,544.,4.8,0.,4.8,14.,4.8,0.,4.8
1979-03-04 18:41:13.410 ,4,0,488.,4.8,0.,4.8,23.,4.8,0.,4.8
1979-03-04 18:41:18.210 ,4,0,592.,4.8,0.,4.8,26.,4.8,0.,4.8
1979-03-04 18:41:23.010 ,4,0,1024.,4.8,0.,4.8,19.,4.8,0.,4.8
1979-03-04 18:41:27.810 ,7,0,896.,4.8,0.,4.8,25.,4.8,0.,4.8
1979-03-04 18:41:32.610 ,7,0,656.,4.8,0.,4.8,24.,4.8,0.,4.8
1979-03-04 18:41:37.410 ,7,0,344.,4.8,0.,4.8,15.,4.8,0.,4.8
1979-03-04 18:41:42.210 ,7,0,2.,4.8,0.,4.8,0.,4.8,0.,4.8
1979-03-04 18:41:47.010 ,7,0,0.,4.8,0.,4.8,0.,4.8,0.,4.8
1979-03-04 18:41:51.810 ,3,0,656.,4.8,0.,4.8,27.,4.8,0.,4.8
1979-03-04 18:41:56.610 ,3,0,832.,4.8,0.,4.8,28.,4.8,0.,4.8
1979-03-04 18:42:01.410 ,3,0,896.,4.8,0.,4.8,21.,4.8,0.,4.8
1979-03-04 18:42:06.210 ,3,0,848.,4.8,0.,4.8,20.,4.8,0.,4.8
1979-03-04 18:42:11.010 ,3,0,512.,4.8,0.,4.8,27.,4.8,0.,4.8
1979-03-04 18:42:15.810 ,0,0,512.,4.8,0.,4.8,19.,4.8,0.,4.8
1979-03-04 18:42:20.610 ,0,0,608.,4.8,0.,4.8,22.,4.8,0.,4.8
1979-03-04 18:42:25.410 ,0,0,672.,4.8,0.,4.8,23.,4.8,0.,4.8
1979-03-04 18:42:30.210 ,0,0,832.,4.8,0.,4.8,21.,4.8,0.,4.8
1979-03-04 18:42:35.010 ,0,0,800.,4.8,0.,4.8,23.,4.8,0.,4.8
1979-03-04 18:42:39.810 ,4,0,656.,4.8,0.,4.8,19.,4.8,0.,4.8
1979-03-04 18:42:44.610 ,4,0,528.,4.8,0.,4.8,24.,4.8,0.,4.8
1979-03-04 18:42:49.410 ,4,0,504.,4.8,0.,4.8,23.,4.8,0.,4.8
1979-03-04 18:42:54.210 ,4,0,624.,4.8,0.,4.8,21.,4.8,0.,4.8
1979-03-04 18:42:59.010 ,4,0,976.,4.8,0.,4.8,28.,4.8,0.,4.8